{"data":{"norad_id":68915,"intl_designator":"2026-097W","name":"STARLINK-37516","alt_names":[],"object_type":"PAYLOAD","status":"ACTIVE","operator":null,"country":"US","launch_date":"2026-04-30","launch_site_code":"AFWTR","launch_vehicle":null,"mission":null,"orbit_class":"UNKNOWN","rcs_meters":null,"size_class":null,"mass_kg":null,"dimensions":null,"purposes":["comms"],"wikipedia_slug":null,"has_3d_model":false,"image_url":null,"decayed_at":null,"tle_current":{"epoch":"2026-09-19T23:03:41.924160Z","epoch_age_seconds":62150,"freshness":"FRESH","line1":"1 68915U 26097W   26262.96090190  .00013290  00000+0  41304-3 0  9994","line2":"2 68915  97.2845  97.1807 0003123  87.2726 272.8874 15.33457325 22010","mean_motion":15.33457325,"eccentricity":0.0003123,"inclination_deg":97.2845,"raan_deg":97.1807,"arg_perigee_deg":87.2726,"mean_anomaly_deg":272.8874,"bstar":0.00041304,"rev_number":2201,"period_min":93.905449895712,"perigee_km":463.36923432876,"apogee_km":467.64377406148,"semimajor_km":6843.6435041951,"source":"CELESTRAK","updated_at":"2026-09-20T09:00:44.050235Z"}}}